Weather History for Scottsbluff, NE

Change the Weather History Date:

Tuesday, November 13, 2012

  Actual Average Record
Temperature  
Mean Temperature 36 °F 37 °F  
Max Temperature 50 °F 52 °F 78 °F (1999)
Min Temperature 22 °F 23 °F -21 °F (1916)
Degree Days  
Heating Degree Days 29 28  
Month to date heating degree days 317 325  
Since 1 July heating degree days 916 1016  
Cooling Degree Days 0 0  
Month to date cooling degree days 0 0  
Year to date cooling degree days 1208 724  
Moisture  
Dew Point 23 °F    
Average Humidity 59    
Maximum Humidity 81    
Minimum Humidity 36    
Precipitation  
Precipitation 0.00 in 0.02 in 0.44 in (1972)
Month to date precipitation 0.26 0.33  
Year to date precipitation 6.77 14.95  
Snow  
Snow 0.00 in 0.20 in 4.10 in (1972)
Month to date snowfall 3.7 2.3  
Since 1 July snowfall 10.2 5.5  
Snow Depth 0.00 in    
Sea Level Pressure  
Sea Level Pressure 30.27 in    
Wind  
Wind Speed 7 mph (NW)    
Max Wind Speed 23 mph    
Max Gust Speed 30 mph    
Visibility 10 miles    
Events      
T = Trace of Precipitation, MM = Missing Value Source: NWS Daily Summary

Daily Weather History Graph

Daily Weather History Graph

Search for Another Location

Airport:

Trip Planner

Search our weather history database for the weather conditions in past years. The results will help you decide how hot, cold, wet, or windy it might be!

Date:

Astronomy

Nov. 13, 2012 Rise Set
Actual Time 6:42 AM MST 4:34 PM MST
Civil Twilight 6:12 AM MST 5:04 PM MST
Nautical Twilight 5:38 AM MST 5:38 PM MST
Astronomical Twilight 5:05 AM MST 6:11 PM MST
Moon 6:23 AM MST (11/13) 4:29 PM MST (11/13)
Length of Visible Light 10h 52m
Length of Day
9h 52m
Waning Crescent, 0% of the Moon is Illuminated
Nov 13
Waning Crescent
Nov 13
New
Nov 20
First Quarter
Nov 28
Full
Dec 6
Last Quarter

Hourly Weather History & Observations

Time (MST) Temp. Windchill Dew Point Humidity Pressure Visibility Wind Dir Wind Speed Gust Speed Precip Events Conditions
12:53 AM 23.0 °F - 16.0 °F 74% 30.28 in 10.0 mi Calm Calm - N/A   Clear
1:53 AM 23.0 °F - 18.0 °F 81% 30.28 in 10.0 mi Calm Calm - N/A   Mostly Cloudy
2:53 AM 24.1 °F 19.7 °F 19.9 °F 84% 30.25 in 10.0 mi NNE 3.5 mph - N/A   Mostly Cloudy
3:53 AM 28.0 °F - 21.0 °F 75% 30.23 in 10.0 mi Calm Calm - N/A   Overcast
4:53 AM 33.1 °F 25.5 °F 19.0 °F 56% 30.24 in 10.0 mi West 9.2 mph - N/A   Overcast
5:53 AM 37.9 °F 30.9 °F 19.9 °F 48% 30.24 in 10.0 mi West 10.4 mph - N/A   Overcast
6:53 AM 39.0 °F 31.4 °F 21.9 °F 50% 30.26 in 10.0 mi West 12.7 mph - N/A   Mostly Cloudy
7:53 AM 39.9 °F 32.1 °F 24.1 °F 53% 30.29 in 10.0 mi West 13.8 mph - N/A   Overcast
8:53 AM 39.9 °F 31.1 °F 26.1 °F 58% 30.29 in 10.0 mi West 17.3 mph - N/A   Overcast
9:53 AM 42.1 °F 35.2 °F 26.1 °F 53% 30.29 in 10.0 mi West 12.7 mph - N/A   Mostly Cloudy
10:53 AM 45.0 °F 36.9 °F 26.1 °F 48% 30.27 in 10.0 mi WNW 20.7 mph 29.9 mph N/A   Clear
11:53 AM 48.0 °F - 26.1 °F 42% 30.25 in 10.0 mi WNW 13.8 mph - N/A   Clear
12:53 PM 48.9 °F - 26.1 °F 41% 30.24 in 10.0 mi NNW 16.1 mph - N/A   Clear
1:53 PM 48.9 °F - 27.0 °F 43% 30.24 in 10.0 mi NNW 10.4 mph - N/A   Clear
2:53 PM 50.0 °F - 24.1 °F 36% 30.25 in 10.0 mi NNE 8.1 mph - N/A   Clear
3:53 PM 46.9 °F - 27.0 °F 46% 30.25 in 10.0 mi NE 4.6 mph - N/A   Clear
4:53 PM 39.0 °F - 28.0 °F 65% 30.26 in 10.0 mi Calm Calm - N/A   Clear
5:53 PM 36.0 °F 33.3 °F 26.1 °F 67% 30.27 in 10.0 mi South 3.5 mph - N/A   Clear
6:53 PM 34.0 °F - 26.1 °F 73% 30.29 in 10.0 mi Calm Calm - N/A   Clear
7:53 PM 30.9 °F 26.2 °F 25.0 °F 79% 30.30 in 10.0 mi SE 4.6 mph - N/A   Clear
8:53 PM 28.0 °F 21.7 °F 23.0 °F 81% 30.32 in 10.0 mi ESE 5.8 mph - N/A   Clear
9:53 PM 28.0 °F 24.2 °F 23.0 °F 81% 30.30 in 10.0 mi East 3.5 mph - N/A   Clear
10:53 PM 26.1 °F - 21.0 °F 81% 30.29 in 10.0 mi Calm Calm - N/A   Clear
11:53 PM 25.0 °F 18.1 °F 21.0 °F 85% 30.27 in 10.0 mi ENE 5.8 mph - N/A   Clear